Year,Month,Day,Hour,Minute,Value (Times are PST for temperature in C)
2019,02,26,00,00,-3.60
2019,02,26,00,01,-3.60
2019,02,26,00,02,-3.60
2019,02,26,00,03,-3.70
2019,02,26,00,04,-3.70
2019,02,26,00,05,-3.70
2019,02,26,00,06,-3.70
2019,02,26,00,07,-3.70
2019,02,26,00,08,-3.80
2019,02,26,00,09,-3.80
2019,02,26,00,10,-3.80
2019,02,26,00,11,-3.80
2019,02,26,00,12,-3.80
2019,02,26,00,13,-3.80
2019,02,26,00,14,-3.90
2019,02,26,00,15,-3.90
2019,02,26,00,16,-3.90
2019,02,26,00,17,-3.90
2019,02,26,00,18,-3.90
2019,02,26,00,19,-3.90
2019,02,26,00,20,-3.90
2019,02,26,00,21,-4.00
2019,02,26,00,22,-3.90
2019,02,26,00,23,-4.00
2019,02,26,00,24,-4.00
2019,02,26,00,25,-4.00
2019,02,26,00,26,-4.00
2019,02,26,00,27,-4.00
2019,02,26,00,28,-4.00
2019,02,26,00,29,-4.00
2019,02,26,00,30,-4.10
2019,02,26,00,31,-4.10
2019,02,26,00,32,-4.00
2019,02,26,00,33,-4.00
2019,02,26,00,34,-4.00
2019,02,26,00,35,-4.00
2019,02,26,00,36,-4.10
2019,02,26,00,37,-4.10
2019,02,26,00,38,-4.10
2019,02,26,00,39,-4.10
2019,02,26,00,40,-4.10
2019,02,26,00,41,-4.10
2019,02,26,00,42,-4.10
2019,02,26,00,43,-4.10
2019,02,26,00,44,-4.10
2019,02,26,00,45,-4.10
2019,02,26,00,46,-4.10
2019,02,26,00,47,-4.10
2019,02,26,00,48,-4.10
2019,02,26,00,49,-4.10
2019,02,26,00,50,-4.10
2019,02,26,00,51,-4.10
2019,02,26,00,52,-4.10
2019,02,26,00,53,-4.10
2019,02,26,00,54,-4.00
2019,02,26,00,55,-4.00
2019,02,26,00,56,-3.90
2019,02,26,00,57,-3.90
2019,02,26,00,58,-3.90
2019,02,26,00,59,-3.90
2019,02,26,01,00,-3.90
2019,02,26,01,01,-4.00
2019,02,26,01,02,-4.00
2019,02,26,01,03,-4.00
2019,02,26,01,04,-4.00
2019,02,26,01,05,-4.00
2019,02,26,01,06,-4.00
2019,02,26,01,07,-4.00
2019,02,26,01,08,-4.00
2019,02,26,01,09,-3.90
2019,02,26,01,10,-3.90
2019,02,26,01,11,-3.90
2019,02,26,01,12,-3.90
2019,02,26,01,13,-3.90
2019,02,26,01,14,-3.90
2019,02,26,01,15,-3.90
2019,02,26,01,16,-3.90
2019,02,26,01,17,-3.90
2019,02,26,01,18,-3.90
2019,02,26,01,19,-3.90
2019,02,26,01,20,-3.90
2019,02,26,01,21,-3.90
2019,02,26,01,22,-3.90
2019,02,26,01,23,-4.00
2019,02,26,01,24,-4.00
2019,02,26,01,25,-4.10
2019,02,26,01,26,-4.10
2019,02,26,01,27,-4.10
2019,02,26,01,28,-4.10
2019,02,26,01,29,-4.10
2019,02,26,01,30,-4.10
2019,02,26,01,31,-4.10
2019,02,26,01,32,-4.10
2019,02,26,01,33,-4.20
2019,02,26,01,34,-4.20
2019,02,26,01,35,-4.20
2019,02,26,01,36,-4.20
2019,02,26,01,37,-4.30
2019,02,26,01,38,-4.30
2019,02,26,01,39,-4.30
2019,02,26,01,40,-4.30
2019,02,26,01,41,-4.30
2019,02,26,01,42,-4.30
2019,02,26,01,43,-4.30
2019,02,26,01,44,-4.30
2019,02,26,01,45,-4.30
2019,02,26,01,46,-4.30
2019,02,26,01,47,-4.30
2019,02,26,01,48,-4.30
2019,02,26,01,49,-4.40
2019,02,26,01,50,-4.40
2019,02,26,01,51,-4.40
2019,02,26,01,52,-4.50
2019,02,26,01,53,-4.50
2019,02,26,01,54,-4.50
2019,02,26,01,55,-4.60
2019,02,26,01,56,-4.60
2019,02,26,01,57,-4.70
2019,02,26,01,58,-4.70
2019,02,26,01,59,-4.70
2019,02,26,02,00,-4.70
2019,02,26,02,01,-4.70
2019,02,26,02,02,-4.70
2019,02,26,02,03,-4.70
2019,02,26,02,04,-4.70
2019,02,26,02,05,-4.70
2019,02,26,02,06,-4.70
2019,02,26,02,07,-4.70
2019,02,26,02,08,-4.70
2019,02,26,02,09,-4.70
2019,02,26,02,10,-4.70
2019,02,26,02,11,-4.70
2019,02,26,02,12,-4.60
2019,02,26,02,13,-4.60
2019,02,26,02,14,-4.60
2019,02,26,02,15,-4.60
2019,02,26,02,16,-4.60
2019,02,26,02,17,-4.60
2019,02,26,02,18,-4.60
2019,02,26,02,19,-4.60
2019,02,26,02,20,-4.60
2019,02,26,02,21,-4.70
2019,02,26,02,22,-4.70
2019,02,26,02,23,-4.70
2019,02,26,02,24,-4.70
2019,02,26,02,25,-4.70
2019,02,26,02,26,-4.80
2019,02,26,02,27,-4.80
2019,02,26,02,28,-4.80
2019,02,26,02,29,-4.80
2019,02,26,02,30,-4.80
2019,02,26,02,31,-4.80
2019,02,26,02,32,-4.90
2019,02,26,02,33,-4.90
2019,02,26,02,34,-5.00
2019,02,26,02,35,-5.00
2019,02,26,02,36,-5.00
2019,02,26,02,37,-5.00
2019,02,26,02,38,-5.10
2019,02,26,02,39,-5.10
2019,02,26,02,40,-5.10
2019,02,26,02,41,-5.20
2019,02,26,02,42,-5.20
2019,02,26,02,43,-5.20
2019,02,26,02,44,-5.30
2019,02,26,02,45,-5.30
2019,02,26,02,46,-5.30
2019,02,26,02,47,-5.30
2019,02,26,02,48,-5.30
2019,02,26,02,49,-5.40
2019,02,26,02,50,-5.50
2019,02,26,02,51,-5.50
2019,02,26,02,52,-5.50
2019,02,26,02,53,-5.50
2019,02,26,02,54,-5.50
2019,02,26,02,55,-5.50
2019,02,26,02,56,-5.40
2019,02,26,02,57,-5.40
2019,02,26,02,58,-5.40
2019,02,26,02,59,-5.40
2019,02,26,03,00,-5.40
2019,02,26,03,01,-5.40
2019,02,26,03,02,-5.40
2019,02,26,03,03,-5.40
2019,02,26,03,04,-5.50
2019,02,26,03,05,-5.50
2019,02,26,03,06,-5.50
2019,02,26,03,07,-5.50
2019,02,26,03,08,-5.60
2019,02,26,03,09,-5.60
2019,02,26,03,10,-5.60
2019,02,26,03,11,-5.60
2019,02,26,03,12,-5.70
2019,02,26,03,13,-5.70
2019,02,26,03,14,-5.70
2019,02,26,03,15,-5.70
2019,02,26,03,16,-5.70
2019,02,26,03,17,-5.80
2019,02,26,03,18,-5.80
2019,02,26,03,19,-5.80
2019,02,26,03,20,-5.80
2019,02,26,03,21,-5.80
2019,02,26,03,22,-5.80
2019,02,26,03,23,-5.90
2019,02,26,03,24,-5.90
2019,02,26,03,25,-5.90
2019,02,26,03,26,-5.90
2019,02,26,03,27,-5.90
2019,02,26,03,28,-5.90
2019,02,26,03,29,-5.80
2019,02,26,03,30,-5.80
2019,02,26,03,31,-5.80
2019,02,26,03,32,-5.80
2019,02,26,03,33,-5.80
2019,02,26,03,34,-5.80
2019,02,26,03,35,-5.80
2019,02,26,03,36,-5.80
2019,02,26,03,37,-5.80
2019,02,26,03,38,-5.80
2019,02,26,03,39,-5.80
2019,02,26,03,40,-5.80
2019,02,26,03,41,-5.80
2019,02,26,03,42,-5.70
2019,02,26,03,43,-5.80
2019,02,26,03,44,-5.80
2019,02,26,03,45,-5.80
2019,02,26,03,46,-5.80
2019,02,26,03,47,-5.80
2019,02,26,03,48,-5.80
2019,02,26,03,49,-5.80
2019,02,26,03,50,-5.80
2019,02,26,03,51,-5.80
2019,02,26,03,52,-5.80
2019,02,26,03,53,-5.80
2019,02,26,03,54,-5.80
2019,02,26,03,55,-5.80
2019,02,26,03,56,-5.70
2019,02,26,03,57,-5.70
2019,02,26,03,58,-5.70
2019,02,26,03,59,-5.70
2019,02,26,04,00,-5.70
2019,02,26,04,01,-5.70
2019,02,26,04,02,-5.80
2019,02,26,04,03,-5.80
2019,02,26,04,04,-5.80
2019,02,26,04,05,-5.80
2019,02,26,04,06,-5.80
2019,02,26,04,07,-5.80
2019,02,26,04,08,-5.80
2019,02,26,04,09,-5.80
2019,02,26,04,10,-5.80
2019,02,26,04,11,-5.80
2019,02,26,04,12,-5.80
2019,02,26,04,13,-5.80
2019,02,26,04,14,-5.70
2019,02,26,04,15,-5.70
2019,02,26,04,16,-5.60
2019,02,26,04,17,-5.50
2019,02,26,04,18,-5.50
2019,02,26,04,19,-5.50
2019,02,26,04,20,-5.40
2019,02,26,04,21,-5.40
2019,02,26,04,22,-5.40
2019,02,26,04,23,-5.40
2019,02,26,04,24,-5.30
2019,02,26,04,25,-5.30
2019,02,26,04,26,-5.20
2019,02,26,04,27,-5.20
2019,02,26,04,28,-5.20
2019,02,26,04,29,-5.20
2019,02,26,04,30,-5.20
2019,02,26,04,31,-5.30
2019,02,26,04,32,-5.30
2019,02,26,04,33,-5.40
2019,02,26,04,34,-5.50
2019,02,26,04,35,-5.50
2019,02,26,04,36,-5.60
2019,02,26,04,37,-5.60
2019,02,26,04,38,-5.70
2019,02,26,04,39,-5.70
2019,02,26,04,40,-5.70
2019,02,26,04,41,-5.70
2019,02,26,04,42,-5.80
2019,02,26,04,43,-5.80
2019,02,26,04,44,-5.90
2019,02,26,04,45,-5.90
2019,02,26,04,46,-5.90
2019,02,26,04,47,-5.90
2019,02,26,04,48,-5.80
2019,02,26,04,49,-5.80
2019,02,26,04,50,-5.80
2019,02,26,04,51,-5.80
2019,02,26,04,52,-5.80
2019,02,26,04,53,-5.80
2019,02,26,04,54,-5.80
2019,02,26,04,55,-5.90
2019,02,26,04,56,-5.90
2019,02,26,04,57,-5.90
2019,02,26,04,58,-5.90
2019,02,26,04,59,-5.90
2019,02,26,05,00,-5.90
2019,02,26,05,01,-5.90
2019,02,26,05,02,-5.90
2019,02,26,05,03,-5.90
2019,02,26,05,04,-5.90
2019,02,26,05,05,-5.90
2019,02,26,05,06,-5.90
2019,02,26,05,07,-5.90
2019,02,26,05,08,-6.00
2019,02,26,05,09,-6.10
2019,02,26,05,10,-6.10
2019,02,26,05,11,-6.20
2019,02,26,05,12,-6.20
2019,02,26,05,13,-6.20
2019,02,26,05,14,-6.20
2019,02,26,05,15,-6.10
2019,02,26,05,16,-6.00
2019,02,26,05,17,-6.00
2019,02,26,05,18,-6.00
2019,02,26,05,19,-6.00
2019,02,26,05,20,-6.00
2019,02,26,05,21,-5.90
2019,02,26,05,22,-5.90
2019,02,26,05,23,-5.90
2019,02,26,05,24,-5.90
2019,02,26,05,25,-5.90
2019,02,26,05,26,-5.90
2019,02,26,05,27,-6.00
2019,02,26,05,28,-6.00
2019,02,26,05,29,-5.90
2019,02,26,05,30,-5.90
2019,02,26,05,31,-5.90
2019,02,26,05,32,-5.90
2019,02,26,05,33,-6.00
2019,02,26,05,34,-6.00
2019,02,26,05,35,-6.00
2019,02,26,05,36,-6.10
2019,02,26,05,37,-6.10
2019,02,26,05,38,-6.10
2019,02,26,05,39,-6.10
2019,02,26,05,40,-6.00
2019,02,26,05,41,-6.00
2019,02,26,05,42,-6.00
2019,02,26,05,43,-6.00
2019,02,26,05,44,-6.00
2019,02,26,05,45,-6.10
2019,02,26,05,46,-6.10
2019,02,26,05,47,-6.10
2019,02,26,05,48,-6.20
2019,02,26,05,49,-6.20
2019,02,26,05,50,-6.20
2019,02,26,05,51,-6.20
2019,02,26,05,52,-6.20
2019,02,26,05,53,-6.20
2019,02,26,05,54,-6.10
2019,02,26,05,55,-6.10
2019,02,26,05,56,-6.10
2019,02,26,05,57,-6.10
2019,02,26,05,58,-6.20
2019,02,26,05,59,-6.20
2019,02,26,06,00,-6.30
2019,02,26,06,01,-6.30
2019,02,26,06,02,-6.30
2019,02,26,06,03,-6.40
2019,02,26,06,04,-6.40
2019,02,26,06,05,-6.40
2019,02,26,06,06,-6.40
2019,02,26,06,07,-6.40
2019,02,26,06,08,-6.40
2019,02,26,06,09,-6.50
2019,02,26,06,10,-6.50
2019,02,26,06,11,-6.60
2019,02,26,06,12,-6.60
2019,02,26,06,13,-6.60
2019,02,26,06,14,-6.60
2019,02,26,06,15,-6.50
2019,02,26,06,16,-6.50
2019,02,26,06,17,-6.50
2019,02,26,06,18,-6.50
2019,02,26,06,19,-6.40
2019,02,26,06,20,-6.40
2019,02,26,06,21,-6.40
2019,02,26,06,22,-6.50
2019,02,26,06,23,-6.50
2019,02,26,06,24,-6.50
2019,02,26,06,25,-6.60
2019,02,26,06,26,-6.50
2019,02,26,06,27,-6.50
2019,02,26,06,28,-6.50
2019,02,26,06,29,-6.50
2019,02,26,06,30,-6.50
2019,02,26,06,31,-6.50
2019,02,26,06,32,-6.50
2019,02,26,06,33,-6.50
2019,02,26,06,34,-6.50
2019,02,26,06,35,-6.60
2019,02,26,06,36,-6.60
2019,02,26,06,37,-6.70
2019,02,26,06,38,-6.70
2019,02,26,06,39,-6.70
2019,02,26,06,40,-6.80
2019,02,26,06,41,-6.80
2019,02,26,06,42,-6.90
2019,02,26,06,43,-6.90
2019,02,26,06,44,-6.90
2019,02,26,06,45,-7.00
2019,02,26,06,46,-7.00
2019,02,26,06,47,-7.00
2019,02,26,06,48,-7.10
2019,02,26,06,49,-7.10
2019,02,26,06,50,-7.10
2019,02,26,06,51,-7.00
2019,02,26,06,52,-7.00
2019,02,26,06,53,-6.90
2019,02,26,06,54,-6.90
2019,02,26,06,55,-6.90
2019,02,26,06,56,-6.90
2019,02,26,06,57,-6.90
2019,02,26,06,58,-6.90
2019,02,26,06,59,-6.90
2019,02,26,07,00,-6.90
2019,02,26,07,01,-6.80
2019,02,26,07,02,-6.80
2019,02,26,07,03,-6.80
2019,02,26,07,04,-6.80
2019,02,26,07,05,-6.80
2019,02,26,07,06,-6.70
2019,02,26,07,07,-6.70
2019,02,26,07,08,-6.70
2019,02,26,07,09,-6.70
2019,02,26,07,10,-6.70
2019,02,26,07,11,-6.70
2019,02,26,07,12,-6.70
2019,02,26,07,13,-6.70
2019,02,26,07,14,-6.70
2019,02,26,07,15,-6.70
2019,02,26,07,16,-6.70
2019,02,26,07,17,-6.70
2019,02,26,07,18,-6.70
2019,02,26,07,19,-6.70
2019,02,26,07,20,-6.70
2019,02,26,07,21,-6.70
2019,02,26,07,22,-6.70
2019,02,26,07,23,-6.70
2019,02,26,07,24,-6.70
2019,02,26,07,25,-6.60
2019,02,26,07,26,-6.50
2019,02,26,07,27,-6.50
2019,02,26,07,28,-6.40
2019,02,26,07,29,-6.40
2019,02,26,07,30,-6.40
2019,02,26,07,31,-6.40
2019,02,26,07,32,-6.30
2019,02,26,07,33,-6.30
2019,02,26,07,34,-6.20
2019,02,26,07,35,-6.20
2019,02,26,07,36,-6.10
2019,02,26,07,37,-6.10
2019,02,26,07,38,-6.10
2019,02,26,07,39,-6.10
2019,02,26,07,40,-6.10
2019,02,26,07,41,-6.10
2019,02,26,07,42,-6.10
2019,02,26,07,43,-6.10
2019,02,26,07,44,-6.10
2019,02,26,07,45,-6.00
2019,02,26,07,46,-6.00
2019,02,26,07,47,-5.90
2019,02,26,07,48,-5.90
2019,02,26,07,49,-5.90
2019,02,26,07,50,-5.90
2019,02,26,07,51,-5.90
2019,02,26,07,52,-5.90
2019,02,26,07,53,-5.80
2019,02,26,07,54,-5.60
2019,02,26,07,55,-5.60
2019,02,26,07,56,-5.50
2019,02,26,07,57,-5.30
2019,02,26,07,58,-5.20
2019,02,26,07,59,-5.00
2019,02,26,08,00,-5.00
2019,02,26,08,01,-4.90
2019,02,26,08,02,-4.90
2019,02,26,08,03,-4.80
2019,02,26,08,04,-4.80
2019,02,26,08,05,-4.70
2019,02,26,08,06,-4.70
2019,02,26,08,07,-4.60
2019,02,26,08,08,-4.50
2019,02,26,08,09,-4.50
2019,02,26,08,10,-4.40
2019,02,26,08,11,-4.40
2019,02,26,08,12,-4.40
2019,02,26,08,13,-4.30
2019,02,26,08,14,-4.30
2019,02,26,08,15,-4.20
2019,02,26,08,16,-4.20
2019,02,26,08,17,-4.10
2019,02,26,08,18,-4.10
2019,02,26,08,19,-4.10
2019,02,26,08,20,-4.00
2019,02,26,08,21,-3.90
2019,02,26,08,22,-3.90
2019,02,26,08,23,-3.90
2019,02,26,08,24,-3.80
2019,02,26,08,25,-3.70
2019,02,26,08,26,-3.70
2019,02,26,08,27,-3.60
2019,02,26,08,28,-3.60
2019,02,26,08,29,-3.50
2019,02,26,08,30,-3.40
2019,02,26,08,31,-3.30
2019,02,26,08,32,-3.20
2019,02,26,08,33,-3.10
2019,02,26,08,34,-3.10
2019,02,26,08,35,-3.00
2019,02,26,08,36,-3.00
2019,02,26,08,37,-2.90
2019,02,26,08,38,-2.90
2019,02,26,08,39,-2.80
2019,02,26,08,40,-2.80
2019,02,26,08,41,-2.70
2019,02,26,08,42,-2.70
2019,02,26,08,43,-2.60
2019,02,26,08,44,-2.50
2019,02,26,08,45,-2.40
2019,02,26,08,46,-2.40
2019,02,26,08,47,-2.30
2019,02,26,08,48,-2.20
2019,02,26,08,49,-2.10
2019,02,26,08,50,-2.00
2019,02,26,08,51,-1.90
2019,02,26,08,52,-1.80
2019,02,26,08,53,-1.70
2019,02,26,08,54,-1.60
2019,02,26,08,55,-1.50
2019,02,26,08,56,-1.50
2019,02,26,08,57,-1.50
2019,02,26,08,58,-1.40
2019,02,26,08,59,-1.40
2019,02,26,09,00,-1.40
2019,02,26,09,01,-1.40
2019,02,26,09,02,-1.30
2019,02,26,09,03,-1.20
2019,02,26,09,04,-1.20
2019,02,26,09,05,-1.10
2019,02,26,09,06,-1.00
2019,02,26,09,07,-1.00
2019,02,26,09,08,-1.00
2019,02,26,09,09,-0.90
2019,02,26,09,10,-0.90
2019,02,26,09,11,-0.90
2019,02,26,09,12,-0.90
2019,02,26,09,13,-0.90
2019,02,26,09,14,-0.90
2019,02,26,09,15,-0.90
2019,02,26,09,16,-0.90
2019,02,26,09,17,-1.00
2019,02,26,09,18,-1.00
2019,02,26,09,19,-1.00
2019,02,26,09,20,-0.90
2019,02,26,09,21,-0.90
2019,02,26,09,22,-0.90
2019,02,26,09,23,-0.90
2019,02,26,09,24,-0.80
2019,02,26,09,25,-0.80
2019,02,26,09,26,-0.80
2019,02,26,09,27,-0.70
2019,02,26,09,28,-0.70
2019,02,26,09,29,-0.60
2019,02,26,09,30,-0.60
2019,02,26,09,31,-0.60
2019,02,26,09,32,-0.60
2019,02,26,09,33,-0.50
2019,02,26,09,34,-0.50
2019,02,26,09,35,-0.40
2019,02,26,09,36,-0.40
2019,02,26,09,37,-0.40
2019,02,26,09,38,-0.40
2019,02,26,09,39,-0.40
2019,02,26,09,40,-0.30
2019,02,26,09,41,-0.30
2019,02,26,09,42,-0.30
2019,02,26,09,43,-0.20
2019,02,26,09,44,-0.20
2019,02,26,09,45,-0.20
2019,02,26,09,46,-0.20
2019,02,26,09,47,-0.20
2019,02,26,09,48,-0.20
2019,02,26,09,49,-0.20
2019,02,26,09,50,-0.20
2019,02,26,09,51,-0.20
2019,02,26,09,52,-0.20
2019,02,26,09,53,-0.20
2019,02,26,09,54,-0.20
2019,02,26,09,55,-0.20
2019,02,26,09,56,-0.20
2019,02,26,09,57,-0.20
2019,02,26,09,58,-0.20
2019,02,26,09,59,-0.20
2019,02,26,10,00,-0.20
2019,02,26,10,01,-0.20
2019,02,26,10,02,-0.20
2019,02,26,10,03,-0.10
2019,02,26,10,04,-0.10
2019,02,26,10,05,-0.10
2019,02,26,10,06,-0.10
2019,02,26,10,07,-0.10
2019,02,26,10,08,0.00
2019,02,26,10,09,0.00
2019,02,26,10,10,0.00
2019,02,26,10,11,0.10
2019,02,26,10,12,0.10
2019,02,26,10,13,0.10
2019,02,26,10,14,0.20
2019,02,26,10,15,0.20
2019,02,26,10,16,0.30
2019,02,26,10,17,0.30
2019,02,26,10,18,0.40
2019,02,26,10,19,0.40
2019,02,26,10,20,0.50
2019,02,26,10,21,0.50
2019,02,26,10,22,0.60
2019,02,26,10,23,0.70
2019,02,26,10,24,0.80
2019,02,26,10,25,0.80
2019,02,26,10,26,0.90
2019,02,26,10,27,0.90
2019,02,26,10,28,0.90
2019,02,26,10,29,0.90
2019,02,26,10,30,0.90
2019,02,26,10,31,0.90
2019,02,26,10,32,0.90
2019,02,26,10,33,0.90
2019,02,26,10,34,0.80
2019,02,26,10,35,0.80
2019,02,26,10,36,0.80
2019,02,26,10,37,0.80
2019,02,26,10,38,0.80
2019,02,26,10,39,0.70
2019,02,26,10,40,0.70
2019,02,26,10,41,0.70
2019,02,26,10,42,0.70
2019,02,26,10,43,0.80
2019,02,26,10,44,0.80
2019,02,26,10,45,0.80
2019,02,26,10,46,0.90
2019,02,26,10,47,0.90
2019,02,26,10,48,1.00
2019,02,26,10,49,1.00
2019,02,26,10,50,1.10
2019,02,26,10,51,1.00
2019,02,26,10,52,1.00
2019,02,26,10,53,1.00
2019,02,26,10,54,0.90
2019,02,26,10,55,0.90
2019,02,26,10,56,0.80
2019,02,26,10,57,0.80
2019,02,26,10,58,0.70
2019,02,26,10,59,0.70
2019,02,26,11,00,0.70
2019,02,26,11,01,0.70
2019,02,26,11,02,0.70
2019,02,26,11,03,0.70
2019,02,26,11,04,0.70
2019,02,26,11,05,0.70
2019,02,26,11,06,0.70
2019,02,26,11,07,0.70
2019,02,26,11,08,0.70
2019,02,26,11,09,0.70
2019,02,26,11,10,0.70
2019,02,26,11,11,0.70
2019,02,26,11,12,0.80
2019,02,26,11,13,0.80
2019,02,26,11,14,0.80
2019,02,26,11,15,0.80
2019,02,26,11,16,0.80
2019,02,26,11,17,0.80
2019,02,26,11,18,0.90
2019,02,26,11,19,1.00
2019,02,26,11,20,1.20
2019,02,26,11,21,1.20
2019,02,26,11,22,1.30
2019,02,26,11,23,1.40
2019,02,26,11,24,1.40
2019,02,26,11,25,1.40
2019,02,26,11,26,1.40
2019,02,26,11,27,1.50
2019,02,26,11,28,1.50
2019,02,26,11,29,1.50
2019,02,26,11,30,1.50
2019,02,26,11,31,1.50
2019,02,26,11,32,1.50
2019,02,26,11,33,1.50
2019,02,26,11,34,1.50
2019,02,26,11,35,1.40
2019,02,26,11,36,1.40
2019,02,26,11,37,1.40
2019,02,26,11,38,1.50
2019,02,26,11,39,1.50
2019,02,26,11,40,1.50
2019,02,26,11,41,1.50
2019,02,26,11,42,1.50
2019,02,26,11,43,1.60
2019,02,26,11,44,1.70
2019,02,26,11,45,1.70
2019,02,26,11,46,1.70
2019,02,26,11,47,1.70
2019,02,26,11,48,1.70
2019,02,26,11,49,1.70
2019,02,26,11,50,1.70
2019,02,26,11,51,1.70
2019,02,26,11,52,1.70
2019,02,26,11,53,1.70
2019,02,26,11,54,1.70
2019,02,26,11,55,1.70
2019,02,26,11,56,1.80
2019,02,26,11,57,1.80
2019,02,26,11,58,1.80
2019,02,26,11,59,1.80
2019,02,26,12,00,1.80
2019,02,26,12,01,1.70
2019,02,26,12,02,1.70
2019,02,26,12,03,1.60
2019,02,26,12,04,1.60
2019,02,26,12,05,1.60
2019,02,26,12,06,1.70
2019,02,26,12,07,1.70
2019,02,26,12,08,1.70
2019,02,26,12,09,1.80
2019,02,26,12,10,1.80
2019,02,26,12,11,1.80
2019,02,26,12,12,1.90
2019,02,26,12,13,1.90
2019,02,26,12,14,1.90
2019,02,26,12,15,2.00
2019,02,26,12,16,1.90
2019,02,26,12,17,1.90
2019,02,26,12,18,1.80
2019,02,26,12,19,1.80
2019,02,26,12,20,1.80
2019,02,26,12,21,1.80
2019,02,26,12,22,1.80
2019,02,26,12,23,1.80
2019,02,26,12,24,1.90
2019,02,26,12,25,2.00
2019,02,26,12,26,2.00
2019,02,26,12,27,2.00
2019,02,26,12,28,2.00
2019,02,26,12,29,2.00
2019,02,26,12,30,2.10
2019,02,26,12,31,2.10
2019,02,26,12,32,2.20
2019,02,26,12,33,2.20
2019,02,26,12,34,2.20
2019,02,26,12,35,2.20
2019,02,26,12,36,2.20
2019,02,26,12,37,2.20
2019,02,26,12,38,2.20
2019,02,26,12,39,2.20
2019,02,26,12,40,2.20
2019,02,26,12,41,2.20
2019,02,26,12,42,2.20
2019,02,26,12,43,2.20
2019,02,26,12,44,2.20
2019,02,26,12,45,2.20
2019,02,26,12,46,2.30
2019,02,26,12,47,2.20
2019,02,26,12,48,2.20
2019,02,26,12,49,2.20
2019,02,26,12,50,2.20
2019,02,26,12,51,2.20
2019,02,26,12,52,2.20
2019,02,26,12,53,2.20
2019,02,26,12,54,2.20
2019,02,26,12,55,2.20
2019,02,26,12,56,2.20
2019,02,26,12,57,2.20
2019,02,26,12,58,2.20
2019,02,26,12,59,2.20
2019,02,26,13,00,2.20
2019,02,26,13,01,2.20
2019,02,26,13,02,2.20
2019,02,26,13,03,2.30
2019,02,26,13,04,2.40
2019,02,26,13,05,2.40
2019,02,26,13,06,2.40
2019,02,26,13,07,2.40
2019,02,26,13,08,2.30
2019,02,26,13,09,2.30
2019,02,26,13,10,2.30
2019,02,26,13,11,2.20
2019,02,26,13,12,2.20
2019,02,26,13,13,2.20
2019,02,26,13,14,2.10
2019,02,26,13,15,2.10
2019,02,26,13,16,2.10
2019,02,26,13,17,2.10
2019,02,26,13,18,2.10
2019,02,26,13,19,2.20
2019,02,26,13,20,2.30
2019,02,26,13,21,2.30
2019,02,26,13,22,2.40
2019,02,26,13,23,2.50
2019,02,26,13,24,2.50
2019,02,26,13,25,2.60
2019,02,26,13,26,2.60
2019,02,26,13,27,2.60
2019,02,26,13,28,2.50
2019,02,26,13,29,2.50
2019,02,26,13,30,2.60
2019,02,26,13,31,2.60
2019,02,26,13,32,2.60
2019,02,26,13,33,2.70
2019,02,26,13,34,2.70
2019,02,26,13,35,2.70
2019,02,26,13,36,2.70
2019,02,26,13,37,2.70
2019,02,26,13,38,2.70
2019,02,26,13,39,2.70
2019,02,26,13,40,2.70
2019,02,26,13,41,2.70
2019,02,26,13,42,2.80
2019,02,26,13,43,2.80
2019,02,26,13,44,2.80
2019,02,26,13,45,2.80
2019,02,26,13,46,2.80
2019,02,26,13,47,2.80
2019,02,26,13,48,2.80
2019,02,26,13,49,2.70
2019,02,26,13,50,2.70
2019,02,26,13,51,2.70
2019,02,26,13,52,2.60
2019,02,26,13,53,2.60
2019,02,26,13,54,2.60
2019,02,26,13,55,2.60
2019,02,26,13,56,2.60
2019,02,26,13,57,2.60
2019,02,26,13,58,2.60
2019,02,26,13,59,2.60
2019,02,26,14,00,2.70
2019,02,26,14,01,2.70
2019,02,26,14,02,2.70
2019,02,26,14,03,2.70
2019,02,26,14,04,2.70
2019,02,26,14,05,2.80
2019,02,26,14,06,2.80
2019,02,26,14,07,2.90
2019,02,26,14,08,2.90
2019,02,26,14,09,2.90
2019,02,26,14,10,2.90
2019,02,26,14,11,2.90
2019,02,26,14,12,2.90
2019,02,26,14,13,2.90
2019,02,26,14,14,2.90
2019,02,26,14,15,2.90
2019,02,26,14,16,2.90
2019,02,26,14,17,2.90
2019,02,26,14,18,2.90
2019,02,26,14,19,2.90
2019,02,26,14,20,3.00
2019,02,26,14,21,3.00
2019,02,26,14,22,3.00
2019,02,26,14,23,3.00
2019,02,26,14,24,3.00
2019,02,26,14,25,3.00
2019,02,26,14,26,3.00
2019,02,26,14,27,3.00
2019,02,26,14,28,3.10
2019,02,26,14,29,3.00
2019,02,26,14,30,3.10
2019,02,26,14,31,3.10
2019,02,26,14,32,3.10
2019,02,26,14,33,3.20
2019,02,26,14,34,3.20
2019,02,26,14,35,3.20
2019,02,26,14,36,3.30
2019,02,26,14,37,3.20
2019,02,26,14,38,3.20
2019,02,26,14,39,3.20
2019,02,26,14,40,3.10
2019,02,26,14,41,3.10
2019,02,26,14,42,3.10
2019,02,26,14,43,3.00
2019,02,26,14,44,3.00
2019,02,26,14,45,3.00
2019,02,26,14,46,3.00
2019,02,26,14,47,3.00
2019,02,26,14,48,3.00
2019,02,26,14,49,3.00
2019,02,26,14,50,3.00
2019,02,26,14,51,3.00
2019,02,26,14,52,3.00
2019,02,26,14,53,3.10
2019,02,26,14,54,3.10
2019,02,26,14,55,3.10
2019,02,26,14,56,3.10
2019,02,26,14,57,3.20
2019,02,26,14,58,3.20
2019,02,26,14,59,3.20
2019,02,26,15,00,3.20
2019,02,26,15,01,3.20
2019,02,26,15,02,3.20
2019,02,26,15,03,3.20
2019,02,26,15,04,3.20
2019,02,26,15,05,3.20
2019,02,26,15,06,3.20
2019,02,26,15,07,3.20
2019,02,26,15,08,3.20
2019,02,26,15,09,3.20
2019,02,26,15,10,3.20
2019,02,26,15,11,3.20
2019,02,26,15,12,3.20
2019,02,26,15,13,3.10
2019,02,26,15,14,3.10
2019,02,26,15,15,3.20
2019,02,26,15,16,3.20
2019,02,26,15,17,3.20
2019,02,26,15,18,3.20
2019,02,26,15,19,3.20
2019,02,26,15,20,3.20
2019,02,26,15,21,3.20
2019,02,26,15,22,3.20
2019,02,26,15,23,3.20
2019,02,26,15,24,3.20
2019,02,26,15,25,3.20
2019,02,26,15,26,3.20
2019,02,26,15,27,3.20
2019,02,26,15,28,3.20
2019,02,26,15,29,3.20
2019,02,26,15,30,3.20
2019,02,26,15,31,3.20
2019,02,26,15,32,3.30
2019,02,26,15,33,3.30
2019,02,26,15,34,3.30
2019,02,26,15,35,3.40
2019,02,26,15,36,3.40
2019,02,26,15,37,3.50
2019,02,26,15,38,3.50
2019,02,26,15,39,3.60
2019,02,26,15,40,3.60
2019,02,26,15,41,3.70
2019,02,26,15,42,3.60
2019,02,26,15,43,3.60
2019,02,26,15,44,3.50
2019,02,26,15,45,3.50
2019,02,26,15,46,3.50
2019,02,26,15,47,3.50
2019,02,26,15,48,3.50
2019,02,26,15,49,3.50
2019,02,26,15,50,3.40
2019,02,26,15,51,3.50
2019,02,26,15,52,3.50
2019,02,26,15,53,3.50
2019,02,26,15,54,3.60
2019,02,26,15,55,3.60
2019,02,26,15,56,3.60
2019,02,26,15,57,3.60
2019,02,26,15,58,3.50
2019,02,26,15,59,3.50
2019,02,26,16,00,3.40
2019,02,26,16,01,3.40
2019,02,26,16,02,3.40
2019,02,26,16,03,3.50
2019,02,26,16,04,3.50
2019,02,26,16,05,3.50
2019,02,26,16,06,3.60
2019,02,26,16,07,3.60
2019,02,26,16,08,3.60
2019,02,26,16,09,3.60
2019,02,26,16,10,3.60
2019,02,26,16,11,3.60
2019,02,26,16,12,3.60
2019,02,26,16,13,3.60
2019,02,26,16,14,3.60
2019,02,26,16,15,3.60
2019,02,26,16,16,3.60
2019,02,26,16,17,3.60
2019,02,26,16,18,3.60
2019,02,26,16,19,3.60
2019,02,26,16,20,3.60
2019,02,26,16,21,3.60
2019,02,26,16,22,3.60
2019,02,26,16,23,3.60
2019,02,26,16,24,3.60
2019,02,26,16,25,3.60
2019,02,26,16,26,3.60
2019,02,26,16,27,3.60
2019,02,26,16,28,3.60
2019,02,26,16,29,3.60
2019,02,26,16,30,3.60
2019,02,26,16,31,3.60
2019,02,26,16,32,3.70
2019,02,26,16,33,3.70
2019,02,26,16,34,3.70
2019,02,26,16,35,3.80
2019,02,26,16,36,3.80
2019,02,26,16,37,3.80
2019,02,26,16,38,3.70
2019,02,26,16,39,3.60
2019,02,26,16,40,3.60
2019,02,26,16,41,3.60
2019,02,26,16,42,3.50
2019,02,26,16,43,3.40
2019,02,26,16,44,3.40
2019,02,26,16,45,3.40
2019,02,26,16,46,3.40
2019,02,26,16,47,3.40
2019,02,26,16,48,3.40
2019,02,26,16,49,3.40
2019,02,26,16,50,3.40
2019,02,26,16,51,3.40
2019,02,26,16,52,3.40
2019,02,26,16,53,3.40
2019,02,26,16,54,3.40
2019,02,26,16,55,3.40
2019,02,26,16,56,3.40
2019,02,26,16,57,3.40
2019,02,26,16,58,3.40
2019,02,26,16,59,3.40
2019,02,26,17,00,3.40
2019,02,26,17,01,3.30
2019,02,26,17,02,3.30
2019,02,26,17,03,3.30
2019,02,26,17,04,3.30
2019,02,26,17,05,3.20
2019,02,26,17,06,3.20
2019,02,26,17,07,3.20
2019,02,26,17,08,3.20
2019,02,26,17,09,3.20
2019,02,26,17,10,3.20
2019,02,26,17,11,3.20
2019,02,26,17,12,3.30
2019,02,26,17,13,3.30
2019,02,26,17,14,3.30
2019,02,26,17,15,3.30
2019,02,26,17,16,3.30
2019,02,26,17,17,3.20
2019,02,26,17,18,3.10
2019,02,26,17,19,3.00
2019,02,26,17,20,2.80
2019,02,26,17,21,2.70
2019,02,26,17,22,2.60
2019,02,26,17,23,2.50
2019,02,26,17,24,2.40
2019,02,26,17,25,2.30
2019,02,26,17,26,2.20
2019,02,26,17,27,2.10
2019,02,26,17,28,2.00
2019,02,26,17,29,1.90
2019,02,26,17,30,1.80
2019,02,26,17,31,1.70
2019,02,26,17,32,1.60
2019,02,26,17,33,1.50
2019,02,26,17,34,1.50
2019,02,26,17,35,1.40
2019,02,26,17,36,1.30
2019,02,26,17,37,1.20
2019,02,26,17,38,1.00
2019,02,26,17,39,0.90